Regional Weather Roundup
Issued by NWS

Home | Current Version | Previous Version | Text Only | Print | Product List | Glossary On
Versions: 1 2 3 4 5 6 7 8 9 10 11 12 13 14 15 16 17 18 19 20 21 22 23 24 25 26 27 28 29 30 31 32 33 34 35 36 37 38 39 40 41 42 43 44 45 46 47 48 49 50
000
ASUS43 KLOT 300908
RWRIL

ILLINOIS REGIONAL WEATHER ROUNDUP
NATIONAL WEATHER SERVICE CHICAGO/ROMEOVILLE IL
400 AM CDT THU MAR 30 2017

NOTE: "FAIR" INDICATES FEW OR NO CLOUDS BELOW 12,000 FEET WITH NO
SIGNIFICANT WEATHER AND/OR OBSTRUCTIONS TO VISIBILITY.

* THESE STATIONS ARE NOT UNDER NWS QUALITY CONTROL. THEY ALSO MAY NOT
  REPORT WEATHER SUCH AS PRECIPITATION OR FOG.

ILZ001-002-007-009-015-016-024-301000-
NORTHWEST ILLINOIS

CITY           SKY/WX    TMP DP  RH WIND       PRES   REMARKS
MOLINE         CLOUDY    43  40  89 E23G29    29.74F
STERLING*      LGT RAIN  42  41  96 E17       29.82F FOG
SAVANNA*       RAIN      42  40  93 E16G24    29.82F
$$

ILZ003-004-008-010-011-017-018-301000-
NORTH CENTRAL ILLINOIS

CITY           SKY/WX    TMP DP  RH WIND       PRES   REMARKS
ROCKFORD       LGT RAIN  42  38  85 E15G23    29.86F
FREEPORT*      LGT RAIN  40  38  96 E17G24    29.87S
ROCHELLE*      RAIN      41  40  95 E20G25    29.83F
DE KALB*       LGT RAIN  41  40  95 E14G25    29.87F
PERU*          LGT RAIN  42  41  95 E15G21    29.82F
$$

ILZ005-006-012>014-019>023-301000-
NORTHEAST ILLINOIS

CITY           SKY/WX    TMP DP  RH WIND       PRES   REMARKS
CHICAGO-OHARE  RAIN      42  39  89 E13       29.90F FOG
CHICAGO-MIDWAY TSTM      42  41  96 E15G26    29.90F FOG
AURORA         RAIN      43  40  89 E14       29.88S FOG
LANSING*       TSTM      42  42  99 E12       29.90S
JOLIET*        CLOUDY    45  43  93 E21G28    29.84F
WAUKEGAN       RAIN      38  38 100 E18G25    29.93F FOG     WCI  28
DUPAGE AIRPORT RAIN      41  41 100 E16G24    29.85F FOG
KANKAKEE*      LGT RAIN  44  42  93 NE15      29.85F
WHEELING       RAIN      40  40 100 E12       29.93F FOG
MORRIS*        TSTM      44  42  90 E14       29.84F
ROMEOVILLE*    LGT RAIN  43  43 100 E18G28    29.83F
NORTHERLY ISL    N/A     39  38  96 E10         N/A  WCI  32
$$

LMZ740>746-301000-
SOUTHERN LAKE MICHIGAN

STATION/POSITION SKY/WX   TEMP    WIND        PRES    VSBY  WAVE
                          AIR SEA DIR/SP/G                  HT/PER
                          (F)     (DEG/KT/KT) (MB)    (MI)  (FT/S)
HARRISON CRIB              40      80/ 15/ 17   N/A
BURNHAM HARBOR             40      70/ 11/ 13   N/A
CALUMET HARBOR             41      10/  6/ 12 1013.4R
BURNS HARBOR               42      30/ 13/ 15 1014.2R
MICHIGAN CITY              42      60/ 16/ 19   N/A
$$

ILZ025>027-034>036-040-047-049-050-058-095>099-301000-
WEST-CENTRAL ILLINOIS

CITY           SKY/WX    TMP DP  RH WIND       PRES   REMARKS
QUINCY         CLOUDY    52  50  93 E13       29.62F
GALESBURG*     CLOUDY    45  43  91 E20G28    29.69F
MACOMB*        CLOUDY    47  46  97 E18G25    29.70F
JACKSONVILLE*  CLOUDY    53  52  97 E10       29.65F
PITTSFIELD*    RAIN      52  51  97 NE8       29.64F
$$

ILZ028>032-037-038-041>044-048-051>054-059>061-301000-
CENTRAL ILLINOIS

CITY           SKY/WX    TMP DP  RH WIND       PRES   REMARKS
PONTIAC        CLOUDY    45  44  95 E23G31    29.80S
BLOOMINGTON    TSTM      45  43  93 E18       29.78R FOG
DECATUR        TSTM      53  50  89 VRB7G21   29.77R
PEORIA         LGT RAIN  45  42  89 NE22G30   29.73F
LACON*         CLOUDY    44  42  93 E18G26    29.77F
LINCOLN*       CLOUDY    52  52 100 E18       29.71F
SPRINGFIELD    RAIN      54  54 100 E13       29.68F FOG
TAYLORVILLE    RAIN      54  54 100 SE6       29.70F
$$

ILZ033-039-045-046-055>057-062-063-301000-
EAST-CENTRAL ILLINOIS

CITY           SKY/WX    TMP DP  RH WIND       PRES   REMARKS
CHAMPAIGN      CLOUDY    52  47  83 E14       29.73F
RANTOUL*       CLOUDY    51  49  93 NE12      29.75F
MATTOON        CLOUDY    55  50  83 SE14      29.71F
PARIS*         CLOUDY    53  49  86 E9        29.76F
$$

ILZ079-100>102-301000-
SOUTHWEST ILLINOIS

CITY           SKY/WX    TMP DP  RH WIND       PRES   REMARKS
ALTON          CLOUDY    56  55  95 E9        29.61F
BELLEVILLE     CLOUDY    61  61 100 E10       29.61F
CAHOKIA*       CLOUDY    62  57  83 S6        29.62F
SPARTA*        CLOUDY    63  58  86 SE9       29.67F
$$

ILZ064>066-069>071-074>076-080>082-084>086-088>090-092>094-301000-
SOUTH-CENTRAL ILLINOIS

CITY           SKY/WX    TMP DP  RH WIND       PRES   REMARKS
CARBONDALE     MOCLDY    64  61  90 SE12      29.68F
CAIRO*         LGT RAIN  68  59  74 S7        29.68F
EFFINGHAM*     TSTM      58  56  94 E14       29.71F
MARION         CLOUDY    63  63 100 SE6       29.69F
MT. VERNON     RAIN      61  58  90 SE3       29.69F
CENTRALIA*     TSTM      63  60  92 S8        29.69R
SALEM*         CLOUDY    61  57  88 SW8       29.72R
METROPOLIS*    CLOUDY    71  58  62 S6        29.70F
$$

ILZ067-068-072-073-078-083-087-091-301000-
SOUTHEAST ILLINOIS

CITY           SKY/WX    TMP DP  RH WIND       PRES   REMARKS
LAWRENCEVILLE  CLOUDY    57  51  80 E8        29.74F
FLORA*         TSTM      61  57  88 E5        29.72F
FAIRFIELD*     CLOUDY    61  56  84 W12       29.76R
HARRISBURG*    CLOUDY    63  58  84 CALM      29.71S
ROBINSON*      CLOUDY    55  50  81 SE10      29.75F
CARMI*         CLOUDY    61  55  83 SE10      29.71F
$$

ABBREVIATIONS USED IN REMARKS
   TC - TEMPERATURE IN CELSIUS
  WCI - WIND CHILL INDEX
   HX - HEAT INDEX
  VSB - VISIBILITY
$$





USA.gov is the U.S. government's official web portal to all federal, state and local government web resources and services.